Location: Newark
(39.1833°N, 3.3000°W)
Time: 07:17:39
(UTC+00:00)

Envisat - Visible Passes

Search period start: 18 October 2019 00:00
Search period end: 28 October 2019 00:00
Orbit: 764 x 766 km, 98.1° (Epoch: 18 October)

Date Brightness Start Highest point End Pass type
(mag) Time Alt. Az. Time Alt. Az. Time Alt. Az.
18 Oct 6.4 05:53:15 10° ENE 05:55:56 14° E 05:58:36 10° ESE visible
18 Oct 3.9 18:43:43 10° S 18:48:40 53° W 18:53:38 10° NNW visible
19 Oct 3.0 18:06:52 10° SSE 18:11:54 68° ENE 18:16:57 10° N visible
19 Oct 6.1 19:49:10 10° WSW 19:51:23 13° W 19:53:35 10° WNW visible
20 Oct 5.0 19:09:53 10° SSW 19:14:17 29° W 19:18:42 10° NW visible
21 Oct 6.7 05:43:20 10° ENE 05:44:32 11° E 05:45:44 10° ESE visible
21 Oct 3.4 18:32:20 10° S 18:37:22 68° WSW 18:42:27 10° NNW visible
22 Oct 3.1 17:55:45 10° SSE 18:00:40 53° ENE 18:05:37 10° N visible
22 Oct 5.8 19:36:49 10° SW 19:40:00 17° W 19:43:11 10° NW visible
23 Oct 4.5 18:58:16 10° SSW 19:02:57 37° W 19:07:40 10° NNW visible
24 Oct 3.0 18:21:02 10° SSE 18:26:06 86° WSW 18:31:13 10° NNW visible
25 Oct 3.4 17:44:43 10° SE 17:49:27 42° ENE 17:54:14 10° N visible
25 Oct 5.5 19:24:49 10° SW 19:28:37 21° W 19:32:27 10° NW visible
26 Oct 6.2 05:55:55 10° NE 05:58:56 16° E 06:01:58 10° SE visible
26 Oct 4.0 18:46:46 10° S 18:51:38 48° W 18:56:33 10° NNW visible
27 Oct 2.9 18:09:48 10° SSE 18:14:51 75° ENE 18:19:56 10° N visible
27 Oct 6.2 19:52:46 10° WSW 19:54:24 11° W 19:56:02 10° WNW visible
